DW8816 Weather Reports


time (UTC)temp
C
wind
direction
speed
KPH
gust
KPH
rain 1hr
cm
rain 24hr
cm
rain mn
cm
humidity
%
barometer
mb
20260902211003 18 254 6.4 16.1 0.00 0.08 0.08 92 1015.6
20260902210003 18 249 6.4 20.9 0.00 0.08 0.08 92 1015.7
20260902205003 18 257 6.4 14.5 0.00 0.08 0.08 92 1015.5
20260902204004 18 242 6.4 17.7 0.00 0.08 0.08 92 1015.6
20260902203004 18 252 6.4 20.9 0.00 0.08 0.08 93 1015.6
20260902202004 18 243 6.4 14.5 0.00 0.08 0.08 93 1015.4
20260902201004 18 247 6.4 16.1 0.00 0.08 0.08 93 1015.5
20260902200004 18 258 8.0 17.7 0.00 0.08 0.08 93 1015.6
20260902195004 18 250 6.4 20.9 0.00 0.08 0.08 93 1015.6
20260902194001 18 242 4.8 19.3 0.00 0.08 0.08 94 1015.6
20260902193001 18 239 4.8 22.5 0.00 0.08 0.08 94 1015.6
20260902192003 17 242 4.8 12.9 0.00 0.08 0.08 95 1015.6
20260902191002 17 231 4.8 17.7 0.00 0.08 0.08 95 1015.4
20260902190002 17 240 3.2 11.3 0.00 0.08 0.08 95 1015.3
20260902184002 17 221 3.2 14.5 0.00 0.08 0.08 95 1015.3
20260902183001 17 210 3.2 12.9 0.00 0.08 0.08 94 1015.2
20260902182001 17 221 4.8 11.3 0.00 0.08 0.08 94 1015.5
20260902181002 17 190 3.2 14.5 0.00 0.08 0.08 93 1015.5
20260902180005 17 220 3.2 11.3 0.00 0.08 0.08 93 1015.5
20260902173001 18 210 6.4 17.7 0.00 0.08 0.08 89 1015.9